Regional Weather Roundup
Issued by NWS

Home | Current Version | Previous Version | Graphics & Text | Print | Product List | Glossary On
Versions: 1 2 3 4 5 6 7 8 9 10 11 12 13 14 15 16 17 18 19 20 21 22 23 24 25 26 27 28 29 30 31 32 33 34 35 36 37 38 39 40 41 42 43 44 45 46 47 48 49 50
000
ASUS43 KDTX 231210
RWRMI
MICHIGAN HOURLY REGIONAL WEATHER ROUNDUP
NATIONAL WEATHER SERVICE DETROIT/PONTIAC MI
800 AM EDT SAT AUG 23 2014

NOTE: "FAIR" INDICATES FEW OR NO CLOUDS BELOW 12,000 FEET WITH NO
SIGNIFICANT WEATHER AND/OR OBSTRUCTION TO VISIBILITY.

MIZ047>049-052>055-059>063-066>070-074>076-081>083-231300-
SOUTHEAST LOWER MICHIGAN

CITY           SKY/WX    TMP DP  RH WIND       PRES   REMARKS
ADRIAN         MOSUNNY   68  64  87 E3        30.03F
6HR MIN TEMP:  66; 6HR MAX TEMP:  72;

ALMA           FOG       62  61  97 NE5       30.06F VSB 1/4
ANN ARBOR      CLOUDY    68  61  78 NE7       30.03F
BAD AXE        FOG       62  62 100 N3        30.07F VSB 1/4
6HR MIN TEMP:  61; 6HR MAX TEMP:  62;

DETROIT CITY   FOG       66  63  90 N8        30.05R VSB 1
6HR MIN TEMP:  66; 6HR MAX TEMP:  71;

DETROIT        PTSUNNY   70  61  73 NE6       30.04S
FLINT          FOG       64  60  87 NE7       30.06S VSB 1/2
6HR MIN TEMP:  64; 6HR MAX TEMP:  70;

GROSSE ILE     CLOUDY    68  64  88 NE8       30.02S FOG
HILLSDALE      MOSUNNY   67  66  99 CALM      30.04S FOG
HOWELL         SUNNY     63  62  97 CALM      30.05S
6HR MIN TEMP:  63; 6HR MAX TEMP:  69;


CITY           SKY/WX    TMP DP  RH WIND       PRES   REMARKS
JACKSON        MOSUNNY   69  64  84 E3        30.03F
6HR MIN TEMP:  67; 6HR MAX TEMP:  71;

LAMBERTVILLE   PTSUNNY   70  63  78 E3        30.02F
LANSING        SUNNY     65  62  90 E7        30.05S
6HR MIN TEMP:  64; 6HR MAX TEMP:  72;

LAPEER         NOT AVBL
MASON          PTSUNNY   65  63  91 NE3       30.05S
MONROE         PTSUNNY   68  63  83 NE3       30.01F
MT. CLEMENS    FOG       64  64  99 N7        30.04S VSB 1
6HR MIN TEMP:  64; 6HR MAX TEMP:  65;

PONTIAC        MOSUNNY   65  61  87 NE3       30.05R
6HR MIN TEMP:  63; 6HR MAX TEMP:  69;

PORT HOPE        N/A     62  61  96 VRB3      30.06S
6HR MIN TEMP:  62; 6HR MAX TEMP:  65;

PORT HURON     CLOUDY    64  64 100 N3        30.05F FOG
TRI CITIES     SUNNY     66  63  90 NE5       30.06S
6HR MIN TEMP:  63; 6HR MAX TEMP:  66;

YPSILANTI      PTSUNNY   71  62  73 NE7       30.04S
6HR MIN TEMP:  69; 6HR MAX TEMP:  74;

$$
MIZ043>046-050>051-056>058-064>065-071>073-077>080-231300-
SOUTHWEST LOWER MICHIGAN

CITY           SKY/WX    TMP DP  RH WIND       PRES   REMARKS
BATTLE CREEK   PTSUNNY   71  67  87 E5        30.03S FOG
6HR MIN TEMP:  71; 6HR MAX TEMP:  73;

BENTON HARBOR  CLEAR     71  70  96 CALM      29.98S FOG
6HR MIN TEMP:  68; 6HR MAX TEMP:  71;

BIG RAPIDS     CLOUDY    63  63 100 E6        30.05F FOG
6HR MIN TEMP:  60; 6HR MAX TEMP:  64;

COLDWATER      PTSUNNY   71  69  95 E6        30.02S FOG
6HR MIN TEMP:  71; 6HR MAX TEMP:  74;

HOLLAND        SUNNY     70  67  90 E7        30.01S
6HR MIN TEMP:  67; 6HR MAX TEMP:  72;

GRAND RAPIDS   MOSUNNY   67  67 100 E9        30.03S
6HR MIN TEMP:  67; 6HR MAX TEMP:  70;

KALAMAZOO      SUNNY     70  68  93 CALM      30.01F FOG
6HR MIN TEMP:  68; 6HR MAX TEMP:  73;

MARSHALL       CLOUDY    69  67  94 CALM      30.03S FOG
MUSKEGON       PTCLDY    68  64  87 E6        30.01F
6HR MIN TEMP:  67; 6HR MAX TEMP:  72;

$$
MIZ016>042-231300-
NORTHERN LOWER MICHIGAN

CITY           SKY/WX    TMP DP  RH WIND       PRES   REMARKS
ALPENA         FOG       60  59  96 W6        30.10R VSB<1/4
6HR MIN TEMP:  55; 6HR MAX TEMP:  60;

BEAVER ISLAND  CLOUDY    67  65  93 E6        30.07S
6HR MIN TEMP:  66; 6HR MAX TEMP:  68;

BELLAIRE       CLOUDY    65  63  96 CALM      30.06S
6HR MIN TEMP:  61; 6HR MAX TEMP:  67;

CADILLAC       MOSUNNY   62  61  97 NE3       30.07S
CHARLEVOIX     CLOUDY    68  65  90 SE5       30.09S
6HR MIN TEMP:  67; 6HR MAX TEMP:  72;

FRANKFORT      MOSUNNY   68  61  77 SE3       30.04R
GAYLORD        SUNNY     63  61  93 NE3       30.10S
6HR MIN TEMP:  58; 6HR MAX TEMP:  66;

GRAYLING       FOG       61  61 100 E3        30.09F VSB<1/4
HARBOR SPRINGS FOG       65  64  96 E7        30.08S VSB 1
HOUGHTON LAKE  SUNNY     61  60  97 E6        30.09S
6HR MIN TEMP:  56; 6HR MAX TEMP:  65;

MANISTEE       MOSUNNY   64  61  88 E6        30.04R
OSCODA         FOG       62  62 100 N3        30.08R VSB 1/4
PELLSTON       SUNNY     62  61  96 CALM      30.09S FOG
6HR MIN TEMP:  57; 6HR MAX TEMP:  64;

TRAVERSE CITY  CLOUDY    68  61  78 CALM      30.04S
6HR MIN TEMP:  65; 6HR MAX TEMP:  71;

$$
MIZ007>008-015-231300-
EASTERN UPPER MICHIGAN

CITY           SKY/WX    TMP DP  RH WIND       PRES   REMARKS
KINROSS        CLOUDY    63  63 100 E5        30.10S VSB 1/4
6HR MIN TEMP:  63; 6HR MAX TEMP:  63;

MACKINAC ISLAN FOG       62  62 100 CALM      30.09S VSB 1/4
6HR MIN TEMP:  61; 6HR MAX TEMP:  65; 6HR PCP:  0.01;

NEWBERRY       CLOUDY    63  61  94 CALM      30.09R
S. S. MARIE    SUNNY     64  61  90 E3        30.10S FOG
6HR MIN TEMP:  62; 6HR MAX TEMP:  65;

$$
MIZ004>006-011>014-085-231300-
CENTRAL UPPER MICHIGAN

CITY           SKY/WX    TMP DP  RH WIND       PRES   REMARKS
MANISTIQUE     CLOUDY    66  64  91 SE7       30.06S
ESCANABA       CLOUDY    66  64  94 E7        30.03S
6HR MIN TEMP:  66; 6HR MAX TEMP:  68;

MENOMINEE      CLOUDY    68  66  94 E7        30.01R
6HR MIN TEMP:  64; 6HR MAX TEMP:  68;

SAWYER-GWINN   CLOUDY    64  64 100 E6        30.06R FOG
$$
MIZ001>003-009>011-084-231300-
WESTERN UPPER MICHIGAN

CITY           SKY/WX    TMP DP  RH WIND       PRES   REMARKS
IRON MOUNTAIN  CLOUDY    67  65  93 E3        30.04R FOG
6HR MIN TEMP:  67; 6HR MAX TEMP:  68; 6HR PCP: TRACE;

HOUGHTON       FOG       63  61  93 E6        30.05S VSB<1/4
6HR MIN TEMP:  63; 6HR MAX TEMP:  64;

COPPER HARBOR    N/A     54  53  97 CALM      30.07S
6HR MIN TEMP:  53; 6HR MAX TEMP:  58;

$$

ABBREVIATIONS USED IN REMARKS
   TC - TEMPERATURE IN CELSIUS
  WCI - WIND CHILL INDEX
   HX - HEAT INDEX
  VSB - VISIBILITY



USA.gov is the U.S. government's official web portal to all federal, state and local government web resources and services.